| time (UTC) | temp F | wind direction | speed MPH | gust MPH | rain 1hr in | rain 24hr in | rain mn in | humidity % | barometer mb |
| 20260503004614 | 43 | 0 | 0.0 | 0.0 | 0.00 | 0.00 | 0.00 | 89 | 1020.1 |
| 20260503003113 | 44 | 0 | 0.0 | 0.0 | 0.00 | 0.00 | 0.00 | 89 | 1020.2 |
| 20260503001627 | 44 | 0 | 0.0 | 0.0 | 0.00 | 0.00 | 0.00 | 88 | 1020.2 |
| 20260503000110 | 44 | 0 | 0.0 | 0.0 | 0.00 | 0.00 | 0.00 | 88 | 1020.4 |
| 20260502234613 | 44 | 0 | 0.0 | 0.0 | 0.00 | 0.00 | 0.00 | 87 | 1020.3 |
| 20260502233110 | 45 | 0 | 0.0 | 0.0 | 0.00 | 0.00 | 0.00 | 85 | 1020.4 |
| 20260502231603 | 45 | 0 | 0.0 | 0.0 | 0.00 | 0.00 | 0.00 | 84 | 1020.5 |
| 20260502230108 | 46 | 0 | 0.0 | 0.0 | 0.00 | 0.00 | 0.00 | 83 | 1020.6 |
| 20260502224611 | 47 | 0 | 0.0 | 0.0 | 0.00 | 0.00 | 0.00 | 82 | 1020.7 |
| 20260502223103 | 47 | 0 | 0.0 | 0.0 | 0.00 | 0.00 | 0.00 | 82 | 1020.7 |
| 20260502221558 | 48 | 0 | 0.0 | 0.0 | 0.00 | 0.00 | 0.00 | 81 | 1020.7 |
| 20260502220056 | 48 | 0 | 0.0 | 0.0 | 0.00 | 0.00 | 0.00 | 80 | 1020.7 |
| 20260502214555 | 49 | 0 | 0.0 | 0.0 | 0.00 | 0.00 | 0.00 | 79 | 1020.6 |
| 20260502213107 | 50 | 0 | 0.0 | 0.0 | 0.00 | 0.00 | 0.00 | 77 | 1020.6 |
| 20260502211557 | 50 | 0 | 0.0 | 0.0 | 0.00 | 0.00 | 0.00 | 76 | 1020.5 |
| 20260502210057 | 51 | 0 | 0.0 | 0.0 | 0.00 | 0.00 | 0.00 | 74 | 1020.6 |
| 20260502204605 | 52 | 0 | 0.0 | 0.0 | 0.00 | 0.00 | 0.00 | 72 | 1020.7 |
| 20260502203103 | 52 | 0 | 0.0 | 0.0 | 0.00 | 0.00 | 0.00 | 72 | 1020.6 |
| 20260502201556 | 53 | 0 | 0.0 | 0.0 | 0.00 | 0.00 | 0.00 | 70 | 1020.7 |
| 20260502200126 | 54 | 0 | 0.0 | 0.0 | 0.00 | 0.00 | 0.00 | 69 | 1020.7 |
| 20260502194608 | 55 | 0 | 0.0 | 0.0 | 0.00 | 0.00 | 0.00 | 67 | 1020.6 |
| 20260502193057 | 56 | 0 | 0.0 | 0.0 | 0.00 | 0.00 | 0.00 | 65 | 1020.6 |
| 20260502191602 | 57 | 0 | 0.0 | 0.0 | 0.00 | 0.00 | 0.00 | 62 | 1020.4 |
| 20260502190058 | 58 | 0 | 0.0 | 0.0 | 0.00 | 0.00 | 0.00 | 61 | 1020.2 |
| 20260502184600 | 60 | 0 | 0.0 | 0.0 | 0.00 | 0.00 | 0.00 | 59 | 1020.0 |
| 20260502183111 | 62 | 0 | 0.0 | 0.0 | 0.00 | 0.00 | 0.00 | 55 | 1019.9 |
| 20260502181556 | 64 | 0 | 0.0 | 1.0 | 0.00 | 0.00 | 0.00 | 51 | 1019.7 |
| 20260502163058 | 74 | 134 | 1.0 | 6.0 | 0.00 | 0.00 | 0.00 | 34 | 1019.9 |
| 20260502161603 | 74 | 197 | 1.0 | 5.0 | 0.00 | 0.00 | 0.00 | 33 | 1020.0 |
| 20260502160104 | 75 | 64 | 1.0 | 6.0 | 0.00 | 0.00 | 0.00 | 33 | 1020.2 |
| 20260502151610 | 76 | 72 | 1.0 | 4.0 | 0.00 | 0.00 | 0.00 | 32 | 1020.6 |
| 20260502150130 | 75 | 245 | 3.0 | 8.0 | 0.00 | 0.00 | 0.00 | 33 | 1020.8 |
| 20260502130110 | 75 | 73 | 2.0 | 7.0 | 0.00 | 0.00 | 0.00 | 32 | 1022.2 |
| 20260502123057 | 74 | 137 | 1.0 | 6.0 | 0.00 | 0.00 | 0.00 | 37 | 1022.4 |
| 20260502121602 | 75 | 312 | 0.0 | 5.0 | 0.00 | 0.00 | 0.00 | 33 | 1022.6 |
| 20260502120114 | 73 | 86 | 3.0 | 7.0 | 0.00 | 0.00 | 0.00 | 35 | 1022.8 |
| 20260502114615 | 74 | 35 | 2.0 | 6.0 | 0.00 | 0.00 | 0.00 | 32 | 1023.0 |
| 20260502113114 | 73 | 50 | 4.0 | 11.0 | 0.00 | 0.00 | 0.00 | 35 | 1023.2 |
| 20260502111604 | 73 | 73 | 2.0 | 9.0 | 0.00 | 0.00 | 0.00 | 36 | 1023.2 |
| 20260502110104 | 73 | 203 | 1.0 | 6.0 | 0.00 | 0.00 | 0.00 | 37 | 1023.4 |
| 20260502104557 | 73 | 151 | 2.0 | 6.0 | 0.00 | 0.00 | 0.00 | 38 | 1023.6 |
| 20260502103114 | 73 | 139 | 0.0 | 5.0 | 0.00 | 0.00 | 0.00 | 39 | 1023.9 |
| 20260502101608 | 73 | 167 | 2.0 | 4.0 | 0.00 | 0.00 | 0.00 | 38 | 1024.0 |
| 20260502090108 | 69 | 0 | 0.0 | 4.0 | 0.00 | 0.00 | 0.00 | 41 | 1024.9 |
| 20260502080104 | 65 | 56 | 1.0 | 4.0 | 0.00 | 0.00 | 0.00 | 49 | 1025.4 |
| 20260502064557 | 56 | 0 | 0.0 | 0.0 | 0.00 | 0.00 | 0.00 | 70 | 1025.8 |
| 20260502063124 | 53 | 272 | 0.0 | 1.0 | 0.00 | 0.00 | 0.00 | 71 | 1025.8 |
| 20260502061558 | 52 | 0 | 0.0 | 1.0 | 0.00 | 0.00 | 0.00 | 74 | 1026.1 |
| 20260502060107 | 52 | 338 | 0.0 | 1.0 | 0.00 | 0.00 | 0.00 | 74 | 1026.0 |
| 20260502054625 | 49 | 0 | 0.0 | 1.0 | 0.00 | 0.00 | 0.00 | 75 | 1026.1 |
| 20260502053119 | 45 | 0 | 0.0 | 1.0 | 0.00 | 0.00 | 0.00 | 80 | 1026.2 |
| 20260502051558 | 47 | 0 | 0.0 | 0.0 | 0.00 | 0.00 | 0.00 | 76 | 1026.2 |
| 20260502050059 | 47 | 0 | 0.0 | 0.0 | 0.00 | 0.00 | 0.00 | 80 | 1026.1 |
| 20260502044557 | 44 | 0 | 0.0 | 0.0 | 0.00 | 0.00 | 0.00 | 86 | 1026.2 |
| 20260502043106 | 41 | 0 | 0.0 | 0.0 | 0.00 | 0.00 | 0.00 | 93 | 1026.1 |
| 20260502041556 | 37 | 0 | 0.0 | 0.0 | 0.00 | 0.00 | 0.00 | 94 | 1026.0 |
| 20260502034557 | 37 | 0 | 0.0 | 0.0 | 0.00 | 0.00 | 0.00 | 93 | 1025.9 |
| 20260502033056 | 37 | 0 | 0.0 | 0.0 | 0.00 | 0.00 | 0.00 | 93 | 1025.9 |
| 20260502031557 | 37 | 0 | 0.0 | 0.0 | 0.00 | 0.00 | 0.00 | 92 | 1025.9 |
| 20260502030109 | 38 | 0 | 0.0 | 0.0 | 0.00 | 0.00 | 0.00 | 92 | 1025.9 |
| 20260502024557 | 38 | 0 | 0.0 | 0.0 | 0.00 | 0.00 | 0.00 | 92 | 1025.9 |
| 20260502023100 | 38 | 0 | 0.0 | 0.0 | 0.00 | 0.00 | 0.00 | 91 | 1026.0 |
| 20260502021559 | 38 | 0 | 0.0 | 0.0 | 0.00 | 0.00 | 0.00 | 91 | 1026.1 |
| 20260502020057 | 39 | 0 | 0.0 | 0.0 | 0.00 | 0.00 | 0.00 | 90 | 1026.1 |
| 20260502014558 | 39 | 0 | 0.0 | 0.0 | 0.00 | 0.00 | 0.00 | 90 | 1026.1 |
| 20260502013102 | 39 | 0 | 0.0 | 0.0 | 0.00 | 0.00 | 0.00 | 90 | 1026.1 |
| 20260502011600 | 40 | 0 | 0.0 | 0.0 | 0.00 | 0.00 | 0.00 | 89 | 1026.1 |
| 20260502010059 | 40 | 0 | 0.0 | 0.0 | 0.00 | 0.00 | 0.00 | 89 | 1026.1 |